Location: Gwatt
(46.7204°N, 7.6223°E)
Time: 16:35:20
(UTC+00:00)

deb Explorer IX - Pass Details

Date: 24 January 2021
Orbit: 537 x 1102 km, 38.8° (Epoch: 04 March)

Event Time Altitude Azimuth Distance (km) Brightness Sun altitude
Rises 18:06:06 0° 243° (WSW) 3,663 ? -17.8°
Reaches altitude 10° 18:09:06 10° 235° (SW) 2,628 ? -18.3°
Maximum altitude 18:14:41 35° 172° (S) 1,330 ? -19.3°
Enters shadow 18:16:58 25° 130° (SE) 1,561 ? -19.7°
Drops below altitude 10° 18:19:31 10° 108° (ESE) 2,270 - -20.1°
Sets 18:21:57 0° 99° (E) 3,103 - -20.5°
